Kuchera_Ratio
0.0 0.0 0.0 0.0 0.0 0.0 0.0 0.0 0.0 0.0 0.0 0.0 0.0 0.0 0.0 0.0 0.0 0.0 0.0 0.0 0.0 0.0 0.0 0.0 0.0 0.0 0.0 0.0 0.0 0.0 0.0 0.0 0.0 0.0 0.0 0.0 0.0 0.0 0.0 0.0 0.0 0.0 0.0 0.0 0.0 0.0 0.0 0.0 0.0 0.0 0.0 0.0
0.0 0.0 0.0 0.0 0.0 0.0 0.0 0.0 0.0 0.0 0.0 0.0 0.0 0.0 0.0 0.0 0.0 0.0 0.0 0.0 0.0 0.0 0.0 0.0 0.0 0.0 0.0 0.0 0.0 0.0 0.0 0.0 0.0 0.0 0.0 0.0 0.0 0.0 0.0 0.0 0.0 0.0 0.0 0.0 0.0 0.0 0.0 0.0 0.0 0.0 0.0 0.0
0.0 0.0 0.0 0.0 0.0 0.0 0.0 0.0 0.0 0.0 0.0 0.0 0.0 0.0 0.0 0.0 0.0 0.0 0.0 0.0 0.0 0.0 0.0 0.0 0.0 0.0 0.0 0.0 0.0 0.0 0.0 0.0 0.0 0.0 0.0 0.0 0.0 0.0 0.0 0.0 0.0 0.0 0.0 0.0 0.0 0.0 0.0 0.0 0.0 0.0 0.0 0.0
0.0 0.0 0.0 0.0 0.0 0.0 0.0 0.0 0.0 0.0 0.0 0.0 0.0 0.0 0.0 0.0 0.0 0.0 0.0 0.0 0.0 0.0 0.0 0.0 0.0 0.0 0.0 0.0 0.0 0.0 0.0 0.0 0.0 0.0 0.0 0.0 0.0 0.0 0.0 0.0 0.0 0.0 0.0 0.0 0.0 0.0 0.0 0.0 0.0 0.0 0.0 0.0
0.0 0.0 0.0 0.0 0.0 0.0 0.0 0.0 0.0 0.0 0.0 0.0 0.0 0.0 0.0 0.0 0.0 0.0 0.0 0.0 0.0 0.0 0.0 0.0 0.0 0.0 0.0 0.0 0.0 0.0 0.0 0.0 0.0 0.0 0.0 0.0 0.0 0.0 0.0 0.0 0.0 0.0 0.0 0.0 0.0 0.0 0.0 0.0 0.0 0.0 0.0 0.0
0.0 0.0 0.0 0.0 0.0 0.0 0.0 0.0 0.0 0.0 0.0 0.0 0.0 0.0 0.0 0.0 0.0 0.0 0.0 0.0 0.0 0.0 0.0 0.0 0.0 0.0 0.0 0.0 0.0 0.0 0.0 0.0 0.0 0.0 0.0 0.0 0.0 0.0 0.0 0.0 0.0 0.0 0.0 0.0 0.0 0.0 0.0 0.0 0.0 0.0 0.0 0.0
0.0 0.0 0.0 0.0 0.0 0.0 0.0 0.0 0.0 0.0 0.0 0.0 0.0 0.0 0.0 0.0 0.0 0.0 0.0 0.0 0.0 0.0 0.0 0.0 0.0 0.0 0.0 0.0 0.0 0.0 0.0 0.0 0.0 0.0 0.0 0.0 0.0 0.0 0.0 0.0 0.0 0.0 0.0 0.0 0.0 0.0 0.0 0.0 0.0 0.0 0.0 0.0
0.0 0.0 0.0 0.0 0.0 0.0 0.0 0.0 0.0 0.0 0.0 0.0 0.0 0.0 0.0 0.0 0.0 0.0 0.0 0.0 0.0 0.0 0.0 0.0 0.0 0.0 0.0 0.0 0.0 0.0 0.0 0.0 0.0 0.0 0.0 0.0 0.0 0.0 0.0 0.0 0.0 0.0 0.0 0.1 0.3 0.4 0.3 0.0 0.0 0.0 0.0 0.0
0.0 0.0 0.0 0.0 0.0 0.0 0.0 0.0 0.0 0.0 0.0 0.0 0.0 0.0 0.0 0.0 0.0 0.0 0.0 0.0 0.0 0.0 0.0 0.0 0.0 0.0 0.0 0.0 0.0 0.0 0.0 0.0 0.0 0.0 0.0 0.0 0.0 0.0 0.0 0.0 0.0 0.4 1.3 1.4 1.4 1.3 1.0 0.7 0.4 0.1 0.0 0.0
0.0 0.0 0.0 0.0 0.0 0.0 0.0 0.0 0.0 0.0 0.0 0.0 0.0 0.0 0.0 0.0 0.0 0.0 0.0 0.0 0.0 0.0 0.0 0.0 0.0 0.0 0.0 0.0 0.1 0.0 0.6 0.7 0.4 0.2 0.0 0.0 0.0 0.0 0.0 0.7 1.1 1.5 2.1 2.1 2.1 2.2 2.1 1.8 1.5 1.1 0.9 0.6
0.0 0.0 0.0 0.0 0.0 0.0 0.0 0.0 0.0 0.0 0.0 0.0 0.0 0.0 0.0 0.0 0.0 0.0 0.0 0.0 0.0 0.0 0.0 0.3 0.4 0.4 0.3 0.9 1.0 0.4 1.2 2.0 1.8 1.4 1.2 0.7 0.2 0.4 0.9 1.7 2.1 2.3 2.9 3.3 3.2 3.0 3.1 2.9 2.6 2.3 2.2 1.9
0.0 0.0 0.0 0.0 0.0 0.0 0.0 0.0 0.0 0.0 0.0 0.0 0.0 0.0 0.0 0.0 0.0 0.0 0.7 1.5 1.4 0.4 0.3 1.0 0.8 1.1 1.3 1.7 1.7 1.3 1.9 3.1 3.7 3.1 2.6 2.0 1.4 1.8 2.3 3.0 3.4 3.5 4.0 4.3 4.6 4.1 3.9 3.8 3.8 3.8 3.6 3.1
0.0 0.0 0.0 0.0 0.0 0.0 0.0 0.0 0.0 0.0 0.0 0.0 0.0 0.0 0.0 0.0 0.0 0.0 1.5 1.8 2.0 1.4 2.1 1.9 1.3 2.0 2.3 2.5 2.4 2.5 3.3 3.8 4.8 4.7 3.7 3.1 3.2 3.4 3.6 4.7 4.9 4.8 5.5 5.5 5.8 5.3 4.7 4.6 4.9 4.8 4.3 3.8
0.0 0.0 0.0 0.0 0.0 0.0 0.0 0.0 0.0 0.0 0.0 0.0 0.0 0.0 0.0 0.0 0.0 0.0 1.3 2.3 2.1 2.6 3.7 2.9 2.8 3.6 3.3 3.5 3.2 3.6 4.8 4.3 4.8 5.6 5.0 4.6 4.8 5.2 5.6 6.5 6.2 5.9 6.7 6.4 6.6 6.6 5.9 5.6 5.8 5.3 4.6 4.4
0.0 0.0 0.0 0.0 0.0 0.0 0.0 0.0 0.0 0.0 0.0 0.0 0.0 0.0 0.0 0.0 0.0 0.0 0.3 1.9 2.4 3.5 4.1 4.3 4.8 4.9 4.7 5.3 4.3 4.2 5.3 4.8 5.0 5.7 5.7 5.7 5.5 5.8 6.6 7.3 6.7 6.6 8.1 7.3 7.5 8.1 7.4 6.8 6.3 5.7 5.5 5.2
0.0 0.0 0.0 0.0 0.0 0.0 0.0 0.0 0.0 0.0 0.0 0.0 0.0 0.0 0.0 0.0 0.0 0.0 0.2 1.7 2.8 3.8 4.5 5.2 5.6 5.8 6.1 5.8 5.3 4.7 5.2 5.2 5.5 5.7 5.8 5.9 5.5 6.0 7.1 8.3 8.3 8.0 9.4 8.4 8.6 9.1 8.7 8.2 7.5 7.0 6.8 5.9
0.0 0.0 0.0 0.0 0.0 0.0 0.0 0.0 0.0 0.0 0.0 0.0 0.0 0.0 0.0 0.0 0.0 0.0 0.2 1.5 2.7 3.5 4.7 5.7 6.1 6.4 6.5 6.3 5.8 5.3 5.5 5.8 6.2 6.8 7.5 7.3 6.9 7.4 7.8 8.5 8.9 8.7 9.7 9.3 9.5 9.6 9.8 9.9 9.2 8.8 8.1 7.0
0.0 0.0 0.0 0.0 0.0 0.0 0.0 0.0 0.0 0.0 0.0 0.0 0.0 0.0 0.0 0.0 0.0 0.0 0.0 1.3 2.9 3.8 4.9 6.0 6.3 6.6 6.8 6.6 6.3 6.1 6.3 7.2 7.8 8.5 9.5 9.0 7.9 7.7 8.9 10.8 10.3 10.6 10.3 9.9 9.9 10.0 10.6 10.8 10.3 10.2 9.3 8.3
0.0 0.0 0.0 0.0 0.0 0.0 0.0 0.0 0.0 0.0 0.0 0.0 0.0 0.0 0.0 0.0 0.0 0.0 0.3 1.2 2.9 4.6 5.5 6.1 6.5 6.6 6.8 6.6 6.7 7.3 7.4 8.2 9.3 10.2 10.7 9.8 12.1 12.3 12.4 12.0 11.3 10.9 10.6 10.3 10.1 10.3 10.7 10.6 10.6 10.9 10.4 9.6
0.0 0.0 0.0 0.0 0.0 0.0 0.0 0.0 0.0 0.0 0.0 0.0 0.0 0.0 0.0 0.0 0.0 0.3 0.9 1.5 3.0 5.2 5.7 6.3 6.6 6.7 7.0 6.8 7.5 8.4 8.5 9.1 10.5 10.8 10.0 9.8 9.3 13.0 12.8 12.3 12.3 11.6 11.3 11.1 10.7 10.7 10.7 10.6 11.1 11.3 11.1 10.7
0.0 0.0 0.0 0.0 0.0 0.0 0.0 0.0 0.0 0.0 0.0 0.0 0.0 0.0 0.1 0.0 0.3 0.7 1.2 2.2 3.3 5.5 6.0 6.5 6.9 7.2 7.1 7.6 8.3 9.2 10.0 10.6 10.7 10.7 11.9 12.2 10.2 13.0 13.3 13.4 13.0 12.4 12.2 12.1 11.9 11.6 11.1 11.1 11.9 11.9 11.7 11.4
0.0 0.0 0.0 0.0 0.0 0.0 0.0 0.0 0.0 0.0 0.0 0.0 0.0 0.5 0.8 0.0 0.9 1.4 1.7 2.5 3.9 5.8 6.2 6.7 7.3 7.7 7.9 8.3 9.4 10.3 10.7 10.8 11.0 11.7 10.7 12.6 12.5 12.7 13.5 13.6 13.4 13.1 12.9 12.9 12.8 12.5 11.9 11.6 12.2 12.3 12.1 11.7
0.0 0.0 0.0 0.0 0.0 0.0 0.0 0.0 0.0 0.0 0.0 0.0 0.2 0.7 0.6 0.8 1.7 2.1 2.3 3.0 4.5 6.0 6.5 7.0 7.5 7.7 8.3 9.1 10.0 10.8 11.2 11.3 11.5 11.0 12.3 12.8 12.8 13.0 13.6 13.8 13.5 13.2 13.2 13.2 13.1 13.1 12.5 12.1 12.4 11.4 11.8 11.3
0.0 0.0 0.0 0.0 0.0 0.3 0.6 0.0 0.0 0.3 0.0 0.0 0.8 0.8 0.7 1.7 2.5 2.6 3.2 3.5 4.7 6.0 6.5 6.9 7.4 7.8 8.4 9.2 10.3 11.3 11.6 11.5 11.8 12.2 12.6 13.1 13.4 13.6 13.1 12.6 13.4 13.6 13.7 13.5 14.0 13.1 12.7 12.6 12.6 12.6 12.1 12.3
0.0 0.0 0.0 0.1 0.4 0.8 1.2 1.4 1.7 0.0 0.2 0.7 0.0 0.0 1.0 2.1 2.4 2.8 3.8 4.1 5.0 6.2 6.5 6.8 7.4 7.9 8.5 9.2 10.3 11.0 11.3 11.7 12.1 12.6 13.1 13.2 12.5 13.0 13.8 13.8 13.6 14.1 14.1 15.2 15.0 13.9 14.0 13.6 12.9 12.5 11.8 12.5
0.0 0.0 0.0 0.1 0.6 0.8 1.2 1.6 1.9 2.3 2.3 0.3 0.0 0.0 0.3 1.2 2.2 3.0 4.0 4.4 5.1 6.5 6.9 7.3 7.8 8.2 8.7 9.3 10.2 11.1 11.0 11.2 10.5 12.4 13.2 13.4 14.5 13.6 14.1 14.4 13.5 13.7 14.4 15.5 16.3 16.0 15.7 14.4 12.8 12.4 12.5 12.3
0.0 0.0 0.0 0.0 0.5 0.8 1.2 0.0 0.0 0.0 0.0 1.2 1.5 0.8 0.6 0.9 2.2 3.5 4.6 4.8 5.5 7.0 7.3 7.7 8.2 8.6 9.2 9.7 10.5 11.5 11.9 12.2 12.5 12.6 13.0 13.6 14.4 14.4 14.2 14.1 13.3 14.2 13.5 16.0 15.3 15.7 16.4 16.6 15.5 13.5 12.8 12.7
0.0 0.0 0.0 0.0 0.0 0.7 1.1 1.3 0.9 2.1 1.8 2.1 2.1 2.2 2.7 3.0 3.2 4.2 5.4 5.4 6.2 7.1 7.4 7.8 8.4 8.7 9.2 9.8 10.5 11.9 12.5 12.7 12.7 12.7 12.9 13.3 13.9 14.2 15.6 14.7 14.8 13.1 14.3 14.7 15.7 18.6 17.9 17.8 17.1 17.3 15.3 13.8
0.0 0.0 0.1 0.3 0.0 0.6 1.1 1.4 1.7 2.0 1.9 1.8 2.0 2.3 2.6 2.8 3.3 4.3 5.2 5.7 6.2 6.8 7.3 7.8 8.3 8.7 9.1 9.5 10.0 11.5 12.5 12.7 12.9 13.1 13.4 13.5 14.0 14.2 14.8 15.1 14.6 14.1 14.4 14.7 13.6 15.6 17.7 19.0 19.0 18.5 16.9 15.1
0.5 1.2 1.3 1.5 1.8 1.9 2.2 2.5 2.4 2.1 1.9 1.9 1.9 2.2 0.8 2.7 3.3 4.0 4.8 5.4 5.9 6.5 7.0 7.5 8.0 8.7 9.1 9.2 9.5 10.2 11.3 12.3 12.7 13.1 13.4 13.4 13.6 14.1 13.9 14.5 14.8 15.6 13.3 14.0 13.8 13.7 13.7 14.4 18.1 18.8 18.4 16.0
1.4 2.1 2.7 3.2 3.5 3.6 3.8 4.0 3.5 2.4 2.2 2.3 2.3 2.6 2.8 3.2 3.5 3.8 4.5 5.2 5.9 6.5 6.8 7.2 7.8 8.5 9.2 9.5 9.7 9.9 11.0 12.1 12.2 12.6 13.1 12.9 13.7 13.7 13.2 14.1 15.9 15.4 15.2 14.3 14.1 13.6 13.6 13.7 13.5 14.1 16.2 19.2